User: anonymous   Login
Location: Ferris
(32.5340°N, 96.6656°W)
Time: 15:18:54
(UTC+00:00)
Language:

IUS-17 SRM-1 - Orbit

View from above orbital plane
View from above orbital plane
View from above satellite
View from above satellite

Ground track
Ground track

The orbit is defined by the following mean orbital elements,

1 20843U          26103.08286713 +.00000000 +00000-0 +78548-3 0 00002
2 20843  28.1830  91.2212 6684459 114.4890 326.5658  3.03727372    06
Epoch (UTC): 13 April 2026 01:59:19
Eccentricity: 0.6684459
inclination: 28.1830°
perigee height: 300 km
apogee height: 27226 km
right ascension of ascending node: 91.2212°
argument of perigee: 114.4890°
revolutions per day: 3.03727372
mean anomaly at epoch: 326.5658°

The dashed part of the orbit path shows where the satellite is in the earth's shadow,  

DLR